星链-34551 (STARLINK-34551)

导读

STARLINK-34551是美国SpaceX星链星座的一颗卫星,于2025年6月28日发射升空。星链计划旨在构建全球卫星互联网星座,为全球偏远地区、海洋空域等提供低延迟高速网络接入服务,该卫星入轨后将进一步扩充星链星座的在轨规模,提升星座全球覆盖能力与网络服务性能。

基本信息
目录编号:
64682
目录名称:
STARLINK-34551
国际标识:
2025-139U
轨道中心:
EARTH
卫星名称:
星链-34551
卫星全名:
星链-34551 (STARLINK-34551)
卫星状态:
在轨 (已飞行442 天)
发射日期:
2025-06-28 UTC
国别 :
美国 (US)
星等 :
--
该卫星已列入 空间交会检测服务 Space Conjunction Data Service (SCDS) ,当前飞行风险评估等级: 无高风险
轨道信息
数据来源 国际轨道数据
星历时间: 2026-09-11T23:08:25+0800
1天前
查看轨道信息
半长轴: 6840.791km
偏心率: 0.0001367
轨道倾角: 53.158°
近地点辐角 73.541°
升交点赤经 331.220°
平近点角 286.574°
近地点: 461.718km
远地点: 463.59km
周期: 93.847分钟
每日圈数: 15.344169
详细信息
固有亮度:
5
最大亮度:
2.5
卫星平台:
Starlink V1.0
覆盖范围:
全球
运营商:
太空探索技术公司
运营商所在国:
美国
制造商(研发单位):
太空探索技术公司
制造商所在国:
美国
使用方式:
暂无
卫星简介
Starlink 计划是 SpaceX 推出的全球卫星互联网项目,通过发射低轨道卫星,为全球尤其是偏远地区提供高速、低延迟的互联网服务。自 2019 年起,Starlink 已部署数千颗卫星,旨在缩小全球数字鸿沟,推动互联网普及。该项目还为军事、航空等行业提供通信支持,带来广泛经济效益。
2D轨道图
3D轨道图
轨道高度分析图
轨道倾角分析图
轨道综合分析图
查看轨道综合分析图
交会数据列表
事件ID 空间交会对象 最接近时刻(TCA) 交会距离 交会风险概率(CRP) 交会风险指数(CRI) 操作
CDM_260915-013506-425606-468221
2026-09-15T
01:35:33+0000
0.355 km
远距离
8.699455E-5 中风险 0.74
CDM_260915-004806-425606-468221
2026-09-15T
00:48:39+0000
0.409 km
远距离
6.000912E-5 中风险 0.71
CDM_260912-214106-268006-468222
2026-09-12T
21:41:50+0000
1.076 km
极远距离
1.108627E-5 中风险 0.56
CDM_260914-204704-738106-468221
2026-09-14T
20:47:35+0000
2.193 km
极远距离
1.548385E-6 低风险 0.39
CDM_260914-231406-425606-468221
2026-09-14T
23:14:52+0000
1.334 km
极远距离
1.390361E-6 低风险 0.38
CDM_260913-164205-250106-468222
2026-09-13T
16:42:34+0000
2.634 km
极远距离
8.393373E-7 极低风险 0.33
CDM_260915-030906-425606-468221
2026-09-15T
03:09:20+0000
1.605 km
极远距离
8.254724E-7 极低风险 0.33
CDM_260913-172905-250106-468221
2026-09-13T
17:29:29+0000
2.950 km
极远距离
7.263631E-7 极低风险 0.32
CDM_260915-000106-425606-468221
2026-09-15T
00:01:45+0000
1.954 km
极远距离
5.21285E-7 极低风险 0.29
CDM_260915-022206-425606-468221
2026-09-15T
02:22:27+0000
2.163 km
极远距离
4.291971E-7 极低风险 0.28
与全量物体交会距离演化趋势
与全量物体交会风险概率演化趋势